Weather History for Big Piney, WY

Change the Weather History Date:

Tuesday, February 5, 2013

  Actual Average Record
Temperature  
Mean Temperature 25 °F 12 °F  
Max Temperature 37 °F 27 °F 51 °F (1995)
Min Temperature 13 °F -1 °F -21 °F (2014)
Degree Days  
Heating Degree Days 40 53  
Month to date heating degree days 220 267  
Since 1 July heating degree days 5694 6380  
Cooling Degree Days 0 0  
Month to date cooling degree days 0 0  
Year to date cooling degree days 0 0  
Moisture  
Dew Point 16 °F    
Average Humidity 70    
Maximum Humidity 88    
Minimum Humidity 52    
Precipitation  
Precipitation 0.00 in 0.01 in 0.03 in (1997)
Month to date precipitation T 0.05  
Year to date precipitation 0.07 0.36  
Sea Level Pressure  
Sea Level Pressure 30.07 in    
Wind  
Wind Speed 3 mph (NE)    
Max Wind Speed 7 mph    
Max Gust Speed 7 mph    
Visibility 10 miles    
Events      
T = Trace of Precipitation, MM = Missing Value Source: NWS Daily Summary

Daily Weather History Graph

Daily Weather History Graph

Search for Another Location

Airport:

Trip Planner

Search our weather history database for the weather conditions in past years. The results will help you decide how hot, cold, wet, or windy it might be!

Date:

Astronomy

Feb. 05, 2013 Rise Set
Actual Time 7:29 AM MST 5:39 PM MST
Civil Twilight 7:00 AM MST 6:09 PM MST
Nautical Twilight 6:26 AM MST 6:42 PM MST
Astronomical Twilight 5:53 AM MST 7:15 PM MST
Moon 3:17 AM MST (2/5) 12:58 PM MST (2/5)
Length of Visible Light 11h 09m
Length of Day
10h 10m
Waning Crescent, 26% of the Moon is Illuminated
Feb 5
Waning Crescent
Feb 10
New
Feb 17
First Quarter
Feb 25
Full
Mar 4
Last Quarter

Hourly Weather History & Observations

Time (MST) Temp. Windchill Dew Point Humidity Pressure Visibility Wind Dir Wind Speed Gust Speed Precip Events Conditions
12:53 AM 17.1 °F - 12.0 °F 81% 30.16 in 10.0 mi Calm Calm - N/A   Overcast
1:53 AM 16.0 °F 7.4 °F 12.0 °F 84% 30.16 in 10.0 mi NW 5.8 mph - N/A   Clear
2:53 AM 18.0 °F 12.7 °F 12.9 °F 81% 30.13 in 10.0 mi NNW 3.5 mph - N/A   Overcast
3:53 AM 16.0 °F - 10.9 °F 81% 30.12 in 10.0 mi Calm Calm - N/A   Overcast
4:53 AM 19.0 °F - 14.0 °F 81% 30.11 in 10.0 mi Calm Calm - N/A   Overcast
5:53 AM 19.9 °F - 15.1 °F 81% 30.14 in 10.0 mi Calm Calm - N/A   Overcast
6:53 AM 17.1 °F 10.0 °F 14.0 °F 88% 30.17 in 10.0 mi ENE 4.6 mph - N/A   Clear
7:53 AM 17.1 °F 11.7 °F 12.0 °F 81% 30.19 in 10.0 mi NNE 3.5 mph - N/A   Scattered Clouds
8:53 AM 19.9 °F - 15.1 °F 81% 30.18 in 10.0 mi Calm Calm - N/A   Overcast
9:53 AM 25.0 °F - 18.0 °F 75% 30.16 in 10.0 mi Calm Calm - N/A   Partly Cloudy
10:53 AM 28.0 °F - 18.0 °F 66% 30.16 in 10.0 mi Calm Calm - N/A   Clear
11:53 AM 30.9 °F 27.5 °F 19.9 °F 64% 30.10 in 10.0 mi ENE 3.5 mph - N/A   Clear
12:53 PM 32.0 °F - 19.0 °F 59% 30.05 in 10.0 mi Calm Calm - N/A   Clear
1:53 PM 35.1 °F 32.2 °F 19.9 °F 54% 30.01 in 10.0 mi ENE 3.5 mph - N/A   Clear
2:53 PM 37.0 °F 31.6 °F 21.9 °F 54% 29.98 in 10.0 mi ENE 6.9 mph - N/A   Clear
3:53 PM 36.0 °F 30.3 °F 21.9 °F 57% 29.99 in 10.0 mi NE 6.9 mph - N/A   Clear
4:53 PM 36.0 °F 33.3 °F 21.9 °F 57% 29.96 in 10.0 mi NNE 3.5 mph - N/A   Clear
5:53 PM 28.0 °F 22.8 °F 19.9 °F 72% 29.99 in 10.0 mi North 4.6 mph - N/A   Clear
6:53 PM 23.0 °F 15.8 °F 17.1 °F 78% 30.02 in 10.0 mi NNE 5.8 mph - N/A   Clear
7:53 PM 18.0 °F - 12.9 °F 81% 30.04 in 10.0 mi Calm Calm - N/A   Clear
8:53 PM 17.6 °F 10.7 °F 14.0 °F 86% 29.92 in 10.0 mi East 4.6 mph - N/A   Clear
9:53 PM 17.1 °F 7.6 °F 12.9 °F 84% 30.01 in 10.0 mi ENE 6.9 mph - N/A   Clear
10:53 PM 16.0 °F 10.4 °F 12.0 °F 84% 29.99 in 10.0 mi NNW 3.5 mph - N/A   Unknown
11:53 PM 12.9 °F 6.9 °F 10.0 °F 88% 29.99 in 10.0 mi NNE 3.5 mph - N/A   Partly Cloudy